• Join FlightAware (Why Join?)
  • Login
  • US Flag GB Flag 
18:39 EDT


 

Airport Tracker/Info


-or-


 

Live Flight TrackerFlight Track Log ✈ DAL5916 ✈ 01-May-2013 ✈ KDCA - KLGA

Flight Track Log - Related Links

Times and Time Zones

All times are in EDT time to prevent confusion due to time zone crossing. See the DAL5916 flight status page for this flight to view local times or setup timezone preferences in your user account.

Time Position Orientation Groundspeed Altitude Reporting Facility
EDT Latitude Longitude Course Direction KTS MPH feet Rate Location/Type
14:48 38.8667 -77.0500 74° East 148 170 1,100  Level Potomac TRACON
14:49 38.9000 -77.1000 311° West 196 226 3,800 3,000 Climbing Potomac TRACON
14:50 38.9500 -77.1500 322° Northwest 248 285 7,100 2,760 Climbing Potomac TRACON
14:52 38.9509 -76.6305 67° East  Level FlightAware Approximate
14:53 38.9805 -76.5278 72° East  Level FlightAware Approximate
14:53 39.0481 -77.0750 31° Northeast 239 275 13,000  Level Washington Center
14:54 39.0043 -76.4225 74° East  Level FlightAware Approximate
14:54 39.0433 -76.9492 93° East 273 314 15,900  Level Washington Center
14:55 39.0386 -76.8128 93° East 327 376 18,200 2,520 Climbing Washington Center
14:56 39.0356 -76.6767 92° East 340 391 20,900 1,380 Climbing Washington Center
14:57 39.0286 -76.5347 94° East 377 434 21,000  Climbing Washington Center
14:58 39.0253 -76.3906 92° East 393 452 21,000  Level Washington Center
14:59 39.0533 -76.2464 76° East 398 458 21,000  Level Washington Center
15:00 39.0978 -76.0892 70° East 411 473 21,000  Level Washington Center
15:01 39.1483 -75.9608 63° Northeast 411 473 21,000  Level Washington Center
15:02 39.2111 -75.8381 57° Northeast 404 465 21,000  Level Washington Center
15:03 39.2739 -75.7203 55° Northeast 404 465 21,000  Level Washington Center
15:04 39.3386 -75.5997 55° Northeast 404 465 21,000  Level Washington Center
15:05 39.4008 -75.4789 56° Northeast 404 465 21,000  Level Washington Center
15:06 39.4611 -75.3603 57° Northeast 399 459 21,000  Level Washington Center
15:07 39.5317 -75.2472 51° Northeast 399 459 21,000  Level Washington Center
15:08 39.6231 -75.1658 34° Northeast 393 452 21,000  Level Washington Center
15:09 39.7042 -75.0925 35° Northeast 388 447 21,000 -360 Level Washington Center
15:10 39.8039 -75.0056 34° Northeast 394 453 20,300 -1,920 Descending Washington Center
15:11 39.8847 -74.9344 34° Northeast 394 453 17,200 -3,300 Descending Washington Center
15:12 39.9653 -74.8389 42° Northeast 389 448 13,800 -3,180 Descending Washington Center
15:12 40.0167 -74.7667 47° Northeast 361 415 11,900 -2,220 Descending New York TRACON
15:13 40.0833 -74.6667 49° Northeast 350 403 10,100 -960 Descending New York TRACON
15:14 40.1500 -74.5667 49° Northeast 350 403 10,000 -60 Descending New York TRACON
15:15 40.2000 -74.5000 46° Northeast 307 353 10,000 -240 Level New York TRACON
15:16 40.2500 -74.4333 45° Northeast 242 278 9,600 -540 Descending New York TRACON
15:17 40.3000 -74.3833 37° Northeast 235 270 9,000 -540 Descending New York TRACON
15:18 40.3333 -74.3167 57° Northeast 202 232 8,600 -720 Descending New York TRACON
15:19 40.3833 -74.2667 37° Northeast 192 221 7,600 -840 Descending New York TRACON
15:20 40.4167 -74.2167 49° Northeast 186 214 7,000 -300 Descending New York TRACON
15:21 40.4333 -74.1667 66° East 186 214 7,000 -300 Level New York TRACON
15:22 40.4833 -74.1333 27° Northeast 187 215 6,400 -1,020 Descending New York TRACON
15:23 40.5167 -74.0833 49° Northeast 186 214 5,000 -1,200 Descending New York TRACON
15:24 40.5667 -74.0500 27° Northeast 176 203 4,100 -840 Descending New York TRACON
15:25 40.6000 -74.0167 37° Northeast 177 204 3,400 -780 Descending New York TRACON
15:26 40.6500 -73.9833 27° Northeast 175 201 2,600 -780 Descending New York TRACON
15:27 40.6833 -73.9500 37° Northeast 178 205 1,900 -720 Descending New York TRACON